COSMOS 1743 (16719 NORAD) Tracking and Keplerian Element Data

This shows tracking and keplerian element data for the satellite.

Feedback or suggestion? Click here.




ElementValue
Catalog16719
NameCOSMOS 1743
Epoch Orbit5930
Epoch Day12.89618652
Epoch Year2024
RAAN153.5736
Inclination82.549
Eccentricity0.000973
Argument of Perigee220.097
Mean Anonmoly139.955
Mean Motion15.24557511
Decay Rate0.00010604
L11 16719U 86034A 24012.89618652 .00010604 00000+0 42876-3 0 9999
L22 16719 82.5490 153.5736 0009730 220.0970 139.9550 15.24557511 59308



Live tracking and technical data element details for COSMOS 1743 (NORAD 16719). COSMOS 1743 can be tracked NOW for your location showing map with azimuth and elevation plus other details from your city location.







IsCatalogInMostPopularTable: catalog: 16719, numindb: 418
Update: records affected: 1



GetName: 16719 COSMOS 1743

Hit Count: updated at: Fri, 19 Apr 2024 12:43:35 GMT